Location: DARK SKY Beskydy - Park tmavé oblohy, www.darkskybeskydy.cz
(49.4926°N, 18.5016°E)
Time: 03:43:57
(UTC+02:00)

A-11 Canister half - Pass Details

Date: 27 February 2024
Orbit: 1513 x 1686 km, 47.2° (Epoch: 24 April)

Event Time Altitude Azimuth Distance (km) Brightness Sun altitude
Rises 06:53:25 0° 288° (WNW) 4,907 10.9 2.2°
Reaches altitude 10° 06:56:46 10° 283° (WNW) 3,898 10.5 2.8°
Maximum altitude 07:06:01 46° 214° (SW) 2,059 9.7 4.2°
Drops below altitude 10° 07:14:57 10° 145° (SE) 3,759 12.1 5.6°
Sets 07:18:07 0° 140° (SE) 4,718 12.8 6.0°
